This demonstration page uses our WeatherBlox Daily Observations layout. Learn more.

Left ArrowRight Arrow

Hourly Observations for May 12, 2021

Temp ( °F °C ) Dew Point ( °F °C ) Humidity (%) Winds ( mph kmh ) Pressure ( in mb ) Visibility ( mi km ) Precip ( " mm )
12:15 am 00:15 Partly Cloudy 46 8 35 1.4 63 63 SE 3 6 30.38 1029 10 16 N/A
12:35 am 00:35 Clear 47 8.1 33 0.7 60 60 SE 6 9 30.38 1029 10 16 N/A
12:55 am 00:55 Clear 46 7.8 33 0.5 60 60 SSW 6 9 30.38 1029 10 16 N/A
1:15 am 01:15 Mostly Cloudy 46 8 33 0.4 59 59 SW 3 6 30.39 1029 10 16 N/A
1:35 am 01:35 Cloudy 46 7.7 33 0.7 62 62 SW 3 6 30.39 1029 10 16 N/A
1:55 am 01:55 Cloudy 48 8.7 32 0.1 55 55 N N/A 30.38 1029 10 16 N/A
2:15 am 02:15 Cloudy 48 9 32 undefined 54 54 S 3 6 30.38 1029 10 16 N/A
2:35 am 02:35 Cloudy 48 8.8 32 0.2 55 55 N N/A 30.37 1029 10 16 N/A
2:55 am 02:55 Cloudy 47 8.5 33 0.4 57 57 S 5 7 30.38 1029 10 16 N/A
3:15 am 03:15 Partly Cloudy 46 7.7 32 undefined 59 59 N N/A 30.38 1029 10 16 N/A
3:35 am 03:35 Mostly Cloudy 44 6.4 32 0.1 64 64 N N/A 30.40 1029 10 16 N/A
3:55 am 03:55 Cloudy 44 6.4 32 0.1 64 64 N N/A 30.40 1029 10 16 N/A
4:15 am 04:15 Cloudy 44 6.6 33 0.5 65 65 N N/A 30.39 1029 10 16 N/A
4:35 am 04:35 Mostly Cloudy 41 5 33 0.4 72 72 N N/A 30.41 1030 10 16 N/A
4:55 am 04:55 Partly Cloudy 39 3.7 32 undefined 77 77 N N/A 30.42 1030 10 16 N/A
5:15 am 05:15 Clear 38 3.5 33 0.5 81 81 N N/A 30.41 1030 10 16 N/A
5:35 am 05:35 Clear 39 4 32 -0.1 75 75 E 3 6 30.41 1030 10 16 N/A
5:55 am 05:55 Clear 40 4.2 32 -0.1 74 74 N N/A 30.42 1030 10 16 N/A
6:15 am 06:15 Clear 38 3.4 32 undefined 79 79 N N/A 30.42 1030 10 16 N/A
6:35 am 06:35 Sunny 39 3.9 32 undefined 76 76 N N/A 30.43 1030 10 16 N/A
6:55 am 06:55 Sunny 38 3.2 31 -0.3 78 78 N N/A 30.44 1031 10 16 N/A
7:15 am 07:15 Sunny 39 4 32 undefined 75 75 N N/A 30.44 1031 10 16 N/A
7:35 am 07:35 Sunny 41 5.1 35 1.6 78 78 ESE 3 6 30.44 1031 10 16 N/A
7:55 am 07:55 Sunny 46 7.7 36 2.1 68 68 E 3 6 30.41 1030 10 16 N/A
8:15 am 08:15 Sunny 48 8.7 35 1.9 63 63 E 5 7 30.41 1030 10 16 N/A
8:35 am 08:35 Sunny 49 9.7 35 1.9 59 59 ESE 5 7 30.41 1030 10 16 N/A
8:55 am 08:55 Sunny 51 10.7 36 2.1 56 56 ESE 5 7 30.40 1029 10 16 N/A
9:15 am 09:15 Sunny 53 11.9 35 1.8 50 50 SE 6 9 30.39 1029 10 16 N/A
9:35 am 09:35 Sunny 55 12.6 35 1.5 47 47 ESE 3 6 30.38 1029 10 16 N/A
9:55 am 09:55 Sunny 56 13.2 33 0.7 43 43 SE 6 9 30.37 1029 10 16 N/A
10:15 am 10:15 Sunny 57 14 32 0.1 39 39 SE 3 6 30.37 1028 10 16 N/A
10:35 am 10:35 Sunny 57 14.1 32 undefined 38 38 S 7 11 30.36 1028 10 16 N/A
10:55 am 10:55 Partly Cloudy 56 13.3 32 -0.2 40 40 N N/A 30.36 1028 10 16 N/A
11:15 am 11:15 Partly Cloudy 58 14.6 33 0.5 38 38 SSW 3 6 30.35 1028 10 16 N/A
11:35 am 11:35 Partly Cloudy 57 14 31 -0.3 38 38 SW 3 6 30.36 1028 10 16 N/A
11:55 am 11:55 Partly Cloudy 58 14.4 32 -0.1 37 37 S 7 11 30.34 1028 10 16 N/A
12:15 pm 12:15 Partly Cloudy 59 15 33 0.4 37 37 S 6 9 30.34 1027 10 16 N/A
12:35 pm 12:35 Partly Cloudy 60 15.3 32 0.1 36 36 SSW 6 9 30.34 1027 10 16 N/A
12:55 pm 12:55 Partly Cloudy 60 15.4 31 -0.7 33 33 SSW 7 11 30.33 1027 10 16 N/A
1:15 pm 13:15 Mostly Cloudy 61 16 31 -0.3 33 33 S 10 17 30.32 1027 10 16 N/A
1:35 pm 13:35 Mostly Cloudy 60 15.3 31 -0.8 33 33 E 6 9 30.32 1027 10 16 N/A
1:55 pm 13:55 Mostly Cloudy 63 17.2 33 0.5 33 33 S 13 20 30.29 1026 10 16 N/A
2:15 pm 14:15 Partly Cloudy 63 17.1 32 0.2 32 32 S 8 13 30.28 1025 10 16 N/A
2:35 pm 14:35 Partly Cloudy 62 16.9 32 -0.1 32 32 SW 7 11 30.28 1025 10 16 N/A
2:55 pm 14:55 Mostly Cloudy 63 17.1 31 -0.6 30 30 SSE 9 15 30.28 1025 10 16 N/A
3:15 pm 15:15 Mostly Cloudy 63 17.1 31 -0.8 30 30 S 9 15 30.27 1025 10 16 N/A
3:35 pm 15:35 Mostly Cloudy 62 16.4 31 -0.5 32 32 SW 3 6 30.28 1025 10 16 N/A
3:55 pm 15:55 Mostly Cloudy 62 16.6 31 -0.7 31 31 SSE 7 11 30.27 1025 10 16 N/A
4:15 pm 16:15 Mostly Cloudy 62 16.7 32 -0.2 32 32 SSW 10 17 30.26 1025 10 16 N/A
4:35 pm 16:35 Cloudy 62 16.4 31 -0.3 32 32 S 10 17 30.26 1025 10 16 N/A
4:55 pm 16:55 Cloudy 62 16.4 32 undefined 33 33 S 12 19 30.26 1025 10 16 N/A
5:15 pm 17:15 Cloudy 61 16.3 32 -0.1 33 33 S 7 11 30.25 1024 10 16 N/A
5:35 pm 17:35 Cloudy 62 16.4 32 0.2 33 33 SW 9 15 30.25 1024 10 16 N/A
5:55 pm 17:55 Cloudy 61 16.2 33 0.8 35 35 SSW 9 15 30.25 1024 10 16 N/A
6:15 pm 18:15 Cloudy 61 16.2 33 0.5 35 35 S 14 22 30.25 1024 10 16 N/A
6:35 pm 18:35 Cloudy 61 16.2 33 0.6 35 35 SSE 9 15 30.24 1024 10 16 N/A
6:55 pm 18:55 Cloudy 60 15.7 34 1 37 37 S 12 19 30.24 1024 10 16 N/A
7:15 pm 19:15 Cloudy 60 15.6 34 1.3 38 38 SSE 14 22 30.24 1024 10 16 N/A
7:35 pm 19:35 Cloudy 59 14.9 36 2 42 42 S 13 20 30.25 1024 10 16 N/A
7:55 pm 19:55 Cloudy 58 14.5 37 2.5 45 45 SSE 9 15 30.26 1025 10 16 N/A
8:15 pm 20:15 Mostly Cloudy 58 14.3 37 2.8 46 46 S 10 17 30.26 1025 10 16 N/A
8:35 pm 20:35 Mostly Cloudy 57 14 37 3 48 48 S 9 15 30.28 1025 10 16 N/A
8:55 pm 20:55 Cloudy 56 13.5 38 3.2 50 50 SSE 9 15 30.29 1026 10 16 N/A
9:15 pm 21:15 Cloudy 56 13.2 38 3.3 51 51 S 9 15 30.29 1026 10 16 N/A
9:35 pm 21:35 Mostly Cloudy 55 12.8 38 3.5 53 53 S 9 15 30.30 1026 10 16 N/A
9:55 pm 21:55 Mostly Cloudy 54 12.1 39 3.8 57 57 S 8 13 30.31 1027 10 16 N/A
10:15 pm 22:15 Partly Cloudy 53 11.4 39 3.9 60 60 S 8 13 30.32 1027 10 16 N/A
10:35 pm 22:35 Clear 51 10.5 39 4.1 65 65 SSE 8 13 30.32 1027 10 16 N/A
10:55 pm 22:55 Clear 51 10.5 39 4 64 64 SSE 6 9 30.33 1027 10 16 N/A
11:15 pm 23:15 Clear 50 10 39 4 67 67 S 6 9 30.33 1027 10 16 N/A
11:35 pm 23:35 Clear 49 9.7 39 4 68 68 S 7 11 30.35 1028 10 16 N/A
11:55 pm 23:55 Clear 48 8.7 39 3.8 72 72 SSE 6 9 30.34 1028 10 16 N/A

Powered by AerisWeather